Flood From: 21-02-2018 18:00 Until: 22-02-2018 16:00 warning for: Flood Level: Yellow info button

Although rather usual in this region, locally or potentially dangerous phenomena are expected. (such as local winds, summer thunderstorms, rising streams or high waves) Be aware and pay attention to the latest weather updates, especially if you carry out activities exposed to weather or close to a stream or shoreline. 


Meteo18 Weather Cam more information Meteo18 Weather Cam


Thunder radar more information blitzortung!


Rain radar more information rain snow radar


Visit our other weather sites:

Template documentation
and downloads

And another site



Weather Underground History page Text

Daily Summary for January 13, 2017 Units:  English    Metric   Both
« Previous Day
Next Day »
Daily Weekly Monthly Yearly Custom
  High: Low: Average:
Temperature: TemperatureC °F 0.4 °F 2.6 °F
Dew Point: DewpointC °F -1.0 °F 0.2 °F
Humidity: Humidity % 74 % 84 %
Wind Speed: WindSpeedKMH mph 0.0 mph 12.7 mph
Wind Gust: WindSpeedGustKMH mph - -
Wind:- - West
Pressure: PressurehPa in 1006.3 in -
Precipitation: 0.8 in    
Historical Graphs
 
 
Tabular Data for January 13, 2017
Time Temperature Dew Point Pressure Wind Wind Speed Wind Gust Humidity Rainfall Rate (Hourly)
TemperatureC °F DewpointC °F PressurehPa in Calm     Humidity % HourlyPrecipMM in
00:02 5.9 °F 2.0 °F 1006.3 in WNW 35.4 mph 51.5 mph 76 % 0.0 in
00:12 5.8 °F 1.9 °F 1006.7 in West 22.5 mph 48.3 mph 76 % 0.0 in
00:22 5.6 °F 1.7 °F 1006.7 in West 30.6 mph 41.8 mph 76 % 0.0 in
00:27 5.4 °F 1.5 °F 1006.7 in West 16.1 mph 46.7 mph 76 % 0.0 in
00:32 5.3 °F 1.2 °F 1007.0 in WNW 16.1 mph 46.7 mph 75 % 0.0 in
00:42 5.1 °F 1.4 °F 1007.3 in West 16.1 mph 53.1 mph 77 % 0.0 in
00:52 4.9 °F 1.0 °F 1007.7 in WNW 17.7 mph 59.5 mph 76 % 0.0 in
01:02 4.7 °F 0.5 °F 1008.0 in West 16.1 mph 45.1 mph 74 % 0.0 in
01:12 4.4 °F 0.4 °F 1008.0 in West 22.5 mph 51.5 mph 75 % 0.0 in
01:22 4.3 °F 0.6 °F 1008.4 in WNW 19.3 mph 37.0 mph 77 % 0.0 in
01:27 4.3 °F 0.8 °F 1008.4 in WSW 14.5 mph 37.0 mph 78 % 0.0 in
01:37 3.9 °F 1.3 °F 1008.4 in WNW 12.9 mph 33.8 mph 83 % 0.0 in
01:42 3.8 °F 1.2 °F 1008.4 in West 12.9 mph 33.8 mph 83 % 0.0 in
01:52 3.7 °F 1.2 °F 1008.4 in West 27.4 mph 43.4 mph 84 % 0.0 in
01:57 3.7 °F 1.2 °F 1008.7 in West 12.9 mph 43.4 mph 84 % 0.0 in
02:02 3.7 °F 1.2 °F 1008.7 in West 17.7 mph 43.4 mph 84 % 0.0 in
02:12 3.7 °F 0.9 °F 1009.0 in WSW 14.5 mph 32.2 mph 82 % 0.0 in
02:17 3.7 °F 0.9 °F 1008.7 in WSW 16.1 mph 38.6 mph 82 % 0.0 in
02:22 3.7 °F 0.9 °F 1009.0 in WNW 12.9 mph 38.6 mph 82 % 0.0 in
02:32 3.5 °F 0.7 °F 1009.4 in West 19.3 mph 33.8 mph 82 % 0.0 in
02:37 3.4 °F 0.6 °F 1009.4 in WNW 22.5 mph 33.8 mph 82 % 0.0 in
02:42 3.4 °F 0.4 °F 1009.4 in West 14.5 mph 30.6 mph 81 % 0.0 in
02:52 3.3 °F 0.5 °F 1009.4 in West 29.0 mph 37.0 mph 82 % 0.0 in
02:57 3.3 °F 0.5 °F 1009.4 in West 9.7 mph 37.0 mph 82 % 0.0 in
03:02 3.2 °F 0.4 °F 1009.4 in West 9.7 mph 33.8 mph 82 % 0.0 in
03:07 3.2 °F 0.6 °F 1009.4 in West 16.1 mph 33.8 mph 83 % 0.0 in
03:12 3.2 °F 0.6 °F 1009.4 in West 19.3 mph 27.4 mph 83 % 0.0 in
03:17 3.2 °F 0.6 °F 1009.4 in WSW 14.5 mph 27.4 mph 83 % 0.0 in
03:22 3.2 °F 0.4 °F 1009.4 in WSW 14.5 mph 33.8 mph 82 % 0.0 in
03:27 3.1 °F 0.3 °F 1009.4 in West 20.9 mph 33.8 mph 82 % 0.0 in
03:32 3.1 °F 0.3 °F 1009.7 in West 20.9 mph 33.8 mph 82 % 0.0 in
03:37 3.1 °F 0.2 °F 1009.7 in WSW 11.3 mph 35.4 mph 81 % 0.0 in
03:42 2.9 °F -0.2 °F 1009.7 in West 20.9 mph 35.4 mph 80 % 0.0 in
03:47 2.9 °F 0.0 °F 1010.0 in WNW 11.3 mph 35.4 mph 81 % 0.0 in
03:52 2.7 °F -0.2 °F 1010.0 in WSW 17.7 mph 29.0 mph 81 % 0.0 in
04:02 2.6 °F -0.2 °F 1010.0 in WNW 14.5 mph 29.0 mph 82 % 0.0 in
04:12 2.6 °F 0.0 °F 1010.0 in WNW 27.4 mph 30.6 mph 83 % 0.0 in
04:17 2.4 °F -0.2 °F 1010.0 in WNW 12.9 mph 30.6 mph 83 % 0.0 in
04:22 2.3 °F -0.1 °F 1010.0 in West 25.7 mph 30.6 mph 84 % 0.0 in
04:32 2.3 °F 0.0 °F 1010.0 in WSW 9.7 mph 35.4 mph 85 % 0.0 in
04:37 2.2 °F -0.1 °F 1010.0 in West 38.6 mph 38.6 mph 85 % 0.0 in
04:42 2.2 °F 0.1 °F 1010.0 in West 9.7 mph 41.8 mph 86 % 0.0 in
04:47 2.1 °F -0.2 °F 1009.7 in WNW 11.3 mph 41.8 mph 85 % 0.0 in
04:52 2.0 °F -0.3 °F 1009.7 in West 12.9 mph 41.8 mph 85 % 0.0 in
04:57 2.0 °F -0.3 °F 1009.7 in WSW 27.4 mph 41.8 mph 85 % 0.0 in
05:02 1.9 °F -0.4 °F 1009.7 in West 16.1 mph 33.8 mph 85 % 0.0 in
05:07 1.9 °F -0.4 °F 1010.0 in West 19.3 mph 33.8 mph 85 % 0.0 in
05:12 1.9 °F -0.2 °F 1010.0 in WNW 16.1 mph 30.6 mph 86 % 0.0 in
05:17 1.9 °F -0.2 °F 1010.0 in West 6.4 mph 30.6 mph 86 % 0.0 in
05:22 2.0 °F -0.1 °F 1010.0 in WNW 17.7 mph 30.6 mph 86 % 0.0 in
05:32 1.9 °F -0.2 °F 1010.0 in WNW 17.7 mph 32.2 mph 86 % 0.0 in
05:37 1.9 °F -0.4 °F 1010.0 in WNW 9.7 mph 32.2 mph 85 % 0.0 in
05:42 1.9 °F -0.4 °F 1010.0 in West 12.9 mph 29.0 mph 85 % 0.0 in
05:47 1.9 °F -0.2 °F 1010.4 in West 12.9 mph 29.0 mph 86 % 0.0 in
05:52 1.9 °F -0.4 °F 1010.4 in WSW 16.1 mph 29.0 mph 85 % 0.0 in
05:57 1.9 °F -0.4 °F 1010.4 in West 8.0 mph 29.0 mph 85 % 0.0 in
06:02 1.9 °F -0.4 °F 1010.4 in West 17.7 mph 29.0 mph 85 % 0.0 in
06:07 2.0 °F -0.3 °F 1010.7 in WSW 19.3 mph 30.6 mph 85 % 0.0 in
06:12 2.0 °F -0.3 °F 1010.7 in West 12.9 mph 30.6 mph 85 % 0.0 in
06:17 1.9 °F -0.4 °F 1010.7 in West 12.9 mph 33.8 mph 85 % 0.0 in
06:22 1.8 °F -0.3 °F 1010.7 in WSW 19.3 mph 33.8 mph 86 % 0.0 in
06:27 1.8 °F -0.3 °F 1010.7 in WSW 12.9 mph 33.8 mph 86 % 0.0 in
06:32 1.8 °F -0.3 °F 1010.7 in West 19.3 mph 22.5 mph 86 % 0.0 in
06:37 1.8 °F -0.1 °F 1010.7 in West 11.3 mph 22.5 mph 87 % 0.0 in
06:42 1.8 °F -0.1 °F 1010.7 in WNW 9.7 mph 22.5 mph 87 % 0.0 in
06:47 1.8 °F -0.1 °F 1010.7 in West 24.1 mph 24.1 mph 87 % 0.0 in
06:57 1.7 °F -0.2 °F 1010.7 in WSW 14.5 mph 29.0 mph 87 % 0.0 in
07:02 1.6 °F -0.3 °F 1010.7 in WSW 17.7 mph 29.0 mph 87 % 0.0 in
07:12 1.6 °F -0.2 °F 1010.7 in West 11.3 mph 24.1 mph 88 % 0.0 in
07:17 1.5 °F -0.3 °F 1011.1 in SW 19.3 mph 24.1 mph 88 % 0.0 in
07:22 1.5 °F -0.3 °F 1011.1 in West 8.0 mph 24.1 mph 88 % 0.0 in
07:27 1.4 °F -0.2 °F 1011.1 in WSW 17.7 mph 24.1 mph 89 % 0.0 in
07:32 1.3 °F -0.2 °F 1011.1 in West 14.5 mph 24.1 mph 90 % 0.0 in
07:37 1.2 °F -0.1 °F 1011.1 in WSW 14.5 mph 24.1 mph 91 % 0.0 in
07:42 1.1 °F -0.2 °F 1011.1 in WSW 11.3 mph 24.1 mph 91 % 0.0 in
07:47 1.1 °F -0.1 °F 1011.1 in West 17.7 mph 20.9 mph 92 % 0.0 in
07:52 1.1 °F -0.1 °F 1011.1 in WSW 9.7 mph 19.3 mph 92 % 0.0 in
07:57 1.2 °F -0.1 °F 1011.1 in WSW 9.7 mph 20.9 mph 91 % 0.0 in
08:02 1.2 °F -0.1 °F 1011.1 in WSW 11.3 mph 20.9 mph 91 % 0.0 in
08:07 1.2 °F -0.1 °F 1011.1 in WSW 6.4 mph 20.9 mph 91 % 0.0 in
08:12 1.2 °F -0.1 °F 1011.1 in West 12.9 mph 22.5 mph 91 % 0.0 in
08:17 1.1 °F -0.1 °F 1011.1 in WSW 9.7 mph 22.5 mph 92 % 0.0 in
08:22 0.8 °F -0.2 °F 1011.1 in WSW 6.4 mph 22.5 mph 93 % 0.0 in
08:32 0.6 °F -0.3 °F 1011.1 in SSW 1.6 mph 20.9 mph 94 % 0.0 in
08:37 0.5 °F -0.2 °F 1011.1 in West 4.8 mph 19.3 mph 95 % 0.0 in
08:42 0.4 °F -0.3 °F 1011.1 in WSW 8.0 mph 16.1 mph 95 % 0.0 in
08:52 0.4 °F -0.3 °F 1011.1 in WSW 9.7 mph 16.1 mph 95 % 0.0 in
08:57 0.4 °F -0.3 °F 1011.1 in WSW 4.8 mph 19.3 mph 95 % 0.0 in
09:02 0.4 °F -0.2 °F 1011.1 in West 4.8 mph 19.3 mph 96 % 0.0 in
09:07 0.4 °F -0.2 °F 1011.1 in West 8.0 mph 16.1 mph 96 % 0.0 in
09:12 0.4 °F -0.2 °F 1011.4 in West 6.4 mph 17.7 mph 96 % 0.0 in
09:17 0.4 °F -0.2 °F 1011.4 in WSW 8.0 mph 17.7 mph 96 % 0.0 in
09:22 0.5 °F -0.1 °F 1011.4 in West 9.7 mph 17.7 mph 96 % 0.0 in
09:27 0.6 °F -0.1 °F 1011.4 in West 9.7 mph 17.7 mph 95 % 0.0 in
09:32 0.6 °F -0.1 °F 1011.4 in WNW 9.7 mph 17.7 mph 95 % 0.0 in
09:37 0.6 °F -0.1 °F 1011.4 in SW 3.2 mph 16.1 mph 95 % 0.0 in
09:42 0.7 °F 0.0 °F 1011.7 in West 6.4 mph 16.1 mph 95 % 0.0 in
09:47 0.7 °F 0.0 °F 1011.7 in WSW 9.7 mph 16.1 mph 95 % 0.0 in
09:52 0.7 °F 0.0 °F 1011.7 in WNW 3.2 mph 14.5 mph 95 % 0.0 in
09:57 0.8 °F 0.1 °F 1011.7 in SW 1.6 mph 14.5 mph 95 % 0.0 in
10:02 0.8 °F -0.1 °F 1011.7 in West 3.2 mph 11.3 mph 94 % 0.0 in
10:12 0.9 °F 0.0 °F 1011.7 in Calm   9.7 mph 94 % 0.0 in
10:17 1.0 °F 0.1 °F 1011.7 in Calm   9.7 mph 94 % 0.0 in
10:22 1.1 °F 0.2 °F 1011.7 in SW 8.0 mph 8.0 mph 94 % 0.0 in
10:32 1.2 °F 0.2 °F 1011.7 in WNW 11.3 mph 14.5 mph 93 % 0.0 in
10:37 1.3 °F 0.3 °F 1011.7 in WSW 3.2 mph 14.5 mph 93 % 0.3 in
10:42 1.3 °F 0.3 °F 1011.7 in West 9.7 mph 19.3 mph 93 % 0.3 in
10:52 1.3 °F 0.3 °F 1011.7 in WNW 4.8 mph 16.1 mph 93 % 0.3 in
10:57 1.3 °F 0.3 °F 1011.7 in West 14.5 mph 16.1 mph 93 % 0.3 in
11:02 1.3 °F 0.3 °F 1011.7 in WNW 8.0 mph 22.5 mph 93 % 0.3 in
11:07 1.4 °F 0.4 °F 1011.7 in WSW 6.4 mph 27.4 mph 93 % 0.5 in
11:12 1.4 °F 0.4 °F 1012.1 in WNW 4.8 mph 27.4 mph 93 % 0.5 in
11:17 1.4 °F 0.4 °F 1012.1 in WNW 12.9 mph 27.4 mph 93 % 0.5 in
11:22 1.5 °F 0.3 °F 1012.1 in West 6.4 mph 19.3 mph 92 % 0.5 in
11:32 1.6 °F 0.4 °F 1012.4 in WSW 8.0 mph 19.3 mph 92 % 0.3 in
11:42 1.7 °F 0.5 °F 1012.4 in WNW 4.8 mph 25.7 mph 92 % 0.3 in
11:52 1.7 °F 0.5 °F 1012.1 in NW 9.7 mph 20.9 mph 92 % 0.3 in
11:57 1.8 °F 0.6 °F 1012.4 in WNW 14.5 mph 20.9 mph 92 % 0.3 in
12:02 1.9 °F 0.7 °F 1012.4 in NW 6.4 mph 20.9 mph 92 % 0.0 in
12:12 2.1 °F 0.9 °F 1012.4 in NW 3.2 mph 22.5 mph 92 % 0.0 in
12:17 2.1 °F 0.8 °F 1012.4 in WNW 16.1 mph 22.5 mph 91 % 0.0 in
12:22 2.1 °F 0.9 °F 1012.4 in WNW 16.1 mph 22.5 mph 92 % 0.0 in
12:32 2.1 °F 0.9 °F 1012.8 in NNW 8.0 mph 24.1 mph 92 % 0.0 in
12:37 2.2 °F 1.0 °F 1012.8 in WNW 16.1 mph 29.0 mph 92 % 0.0 in
12:42 2.2 °F 0.9 °F 1012.8 in WNW 11.3 mph 29.0 mph 91 % 0.0 in
12:47 2.3 °F 1.0 °F 1012.8 in WNW 16.1 mph 29.0 mph 91 % 0.0 in
12:57 2.4 °F 0.9 °F 1012.8 in NW 16.1 mph 30.6 mph 90 % 0.0 in
13:02 2.5 °F 1.0 °F 1012.8 in North 9.7 mph 30.6 mph 90 % 0.0 in
13:07 2.5 °F 0.9 °F 1012.8 in West 17.7 mph 27.4 mph 89 % 0.0 in
13:12 2.7 °F 1.1 °F 1012.8 in SW 22.5 mph 27.4 mph 89 % 0.0 in
13:17 3.0 °F 1.4 °F 1012.8 in NW 14.5 mph 27.4 mph 89 % 0.0 in
13:22 3.3 °F 1.7 °F 1012.8 in NW 11.3 mph 22.5 mph 89 % 0.0 in
13:27 3.4 °F 1.3 °F 1012.8 in NW 25.7 mph 25.7 mph 86 % 0.0 in
13:32 3.6 °F 1.3 °F 1012.8 in NW 8.0 mph 30.6 mph 85 % 0.0 in
13:37 3.8 °F 1.5 °F 1012.8 in West 14.5 mph 30.6 mph 85 % 0.0 in
13:42 3.8 °F 1.2 °F 1012.8 in NNW 14.5 mph 33.8 mph 83 % 0.0 in
13:52 3.7 °F 1.1 °F 1012.8 in NW 11.3 mph 35.4 mph 83 % 0.0 in
13:57 3.8 °F 0.8 °F 1012.8 in NW 12.9 mph 35.4 mph 81 % 0.0 in
14:02 3.8 °F 0.7 °F 1012.8 in WNW 14.5 mph 37.0 mph 80 % 0.0 in
14:07 4.0 °F 0.9 °F 1013.1 in NW 4.8 mph 37.0 mph 80 % 0.0 in
14:12 4.1 °F 0.6 °F 1013.1 in WNW 17.7 mph 37.0 mph 78 % 0.0 in
14:17 4.1 °F 1.0 °F 1013.1 in WNW 16.1 mph 33.8 mph 80 % 0.0 in
14:22 4.2 °F 0.7 °F 1013.1 in NNE 9.7 mph 27.4 mph 78 % 0.0 in
14:27 4.1 °F 0.6 °F 1013.4 in NNW 22.5 mph 27.4 mph 78 % 0.0 in
14:32 4.2 °F 0.7 °F 1013.4 in WNW 32.2 mph 32.2 mph 78 % 0.3 in
14:37 4.1 °F 0.8 °F 1013.4 in WNW 8.0 mph 32.2 mph 79 % 0.3 in
14:42 4.2 °F 0.7 °F 1013.4 in NNW 14.5 mph 32.2 mph 78 % 0.3 in
14:47 4.2 °F 0.7 °F 1013.4 in WNW 12.9 mph 32.2 mph 78 % 0.3 in
14:52 4.1 °F 0.4 °F 1013.8 in WNW 11.3 mph 24.1 mph 77 % 0.3 in
14:57 3.3 °F 0.9 °F 1013.8 in NW 24.1 mph 32.2 mph 84 % 0.3 in
15:02 2.3 °F 0.8 °F 1013.8 in WNW 24.1 mph 56.3 mph 90 % 0.3 in
15:07 2.1 °F 0.8 °F 1014.1 in WNW 11.3 mph 56.3 mph 91 % 0.3 in
15:12 2.1 °F 0.8 °F 1013.8 in West 16.1 mph 37.0 mph 91 % 0.3 in
15:17 2.1 °F 0.8 °F 1014.1 in West 4.8 mph 29.0 mph 91 % 0.3 in
15:22 2.0 °F 0.7 °F 1014.1 in West 16.1 mph 29.0 mph 91 % 0.3 in
15:27 1.7 °F 0.5 °F 1014.4 in WNW 6.4 mph 32.2 mph 92 % 0.5 in
15:32 1.6 °F 0.4 °F 1014.4 in West 9.7 mph 32.2 mph 92 % 0.3 in
15:37 1.6 °F 0.6 °F 1014.4 in WNW 8.0 mph 32.2 mph 93 % 0.3 in
15:42 1.9 °F 0.7 °F 1014.4 in WNW 6.4 mph 17.7 mph 92 % 0.3 in
15:47 2.3 °F 0.8 °F 1014.4 in West 3.2 mph 19.3 mph 90 % 0.3 in
15:52 2.5 °F 0.9 °F 1014.4 in WNW 8.0 mph 19.3 mph 89 % 0.3 in
15:57 2.7 °F 0.8 °F 1014.4 in WNW 12.9 mph 19.3 mph 87 % 0.3 in
16:07 3.1 °F 0.8 °F 1014.4 in West 11.3 mph 19.3 mph 85 % 0.3 in
16:12 3.1 °F 0.7 °F 1014.4 in WNW 17.7 mph 22.5 mph 84 % 0.3 in
16:17 3.1 °F 0.5 °F 1014.4 in WNW 14.5 mph 24.1 mph 83 % 0.3 in
16:22 3.2 °F 0.4 °F 1014.4 in West 9.7 mph 24.1 mph 82 % 0.3 in
16:32 3.2 °F -0.1 °F 1014.8 in WNW 19.3 mph 27.4 mph 79 % 0.0 in
16:37 3.3 °F -0.2 °F 1014.8 in SW 24.1 mph 27.4 mph 78 % 0.0 in
16:42 3.3 °F -0.2 °F 1014.8 in NNW 11.3 mph 29.0 mph 78 % 0.0 in
16:52 3.3 °F -0.3 °F 1014.8 in WNW 3.2 mph 30.6 mph 77 % 0.0 in
16:57 3.2 °F -0.4 °F 1014.8 in WNW 11.3 mph 30.6 mph 77 % 0.0 in
17:02 3.1 °F -0.4 °F 1015.1 in WNW 14.5 mph 29.0 mph 78 % 0.0 in
17:07 3.0 °F -0.5 °F 1014.8 in WNW 11.3 mph 29.0 mph 78 % 0.0 in
17:12 2.9 °F -0.6 °F 1015.1 in WNW 14.5 mph 27.4 mph 78 % 0.0 in
17:17 2.7 °F -0.6 °F 1014.8 in WNW 12.9 mph 27.4 mph 79 % 0.0 in
17:22 2.6 °F -0.5 °F 1014.8 in WNW 8.0 mph 27.4 mph 80 % 0.0 in
17:32 2.3 °F -0.6 °F 1014.8 in WNW 12.9 mph 19.3 mph 81 % 0.0 in
17:37 2.3 °F -0.6 °F 1014.8 in WNW 12.9 mph 20.9 mph 81 % 0.0 in
17:42 2.4 °F -0.5 °F 1014.8 in NW 12.9 mph 24.1 mph 81 % 0.0 in
17:52 2.4 °F -0.5 °F 1014.8 in WSW 9.7 mph 29.0 mph 81 % 0.0 in
17:57 2.5 °F -0.6 °F 1015.1 in WSW 9.7 mph 29.0 mph 80 % 0.0 in
18:02 2.5 °F -0.6 °F 1015.1 in West 8.0 mph 29.0 mph 80 % 0.0 in
18:07 2.6 °F -0.7 °F 1015.1 in WNW 14.5 mph 24.1 mph 79 % 0.0 in
18:12 2.7 °F -0.6 °F 1015.1 in WNW 12.9 mph 27.4 mph 79 % 0.0 in
18:17 2.8 °F -0.7 °F 1015.1 in WNW 1.6 mph 27.4 mph 78 % 0.0 in
18:22 2.8 °F -0.7 °F 1015.1 in NW 6.4 mph 27.4 mph 78 % 0.0 in
18:27 2.8 °F -0.8 °F 1015.1 in NW 12.9 mph 25.7 mph 77 % 0.0 in
18:32 2.9 °F -0.7 °F 1015.1 in WNW 14.5 mph 27.4 mph 77 % 0.0 in
18:37 2.9 °F -0.9 °F 1015.1 in WNW 11.3 mph 27.4 mph 76 % 0.0 in
18:42 3.0 °F -0.8 °F 1015.1 in WNW 12.9 mph 27.4 mph 76 % 0.0 in
18:47 3.1 °F -0.9 °F 1015.1 in WSW 19.3 mph 22.5 mph 75 % 0.0 in
18:52 3.2 °F -0.8 °F 1015.1 in West 8.0 mph 25.7 mph 75 % 0.0 in
18:57 3.2 °F -1.0 °F 1015.5 in WNW 14.5 mph 25.7 mph 74 % 0.0 in
19:02 3.2 °F -1.0 °F 1015.5 in West 11.3 mph 25.7 mph 74 % 0.0 in
19:07 3.3 °F -0.9 °F 1015.5 in West 9.7 mph 22.5 mph 74 % 0.0 in
19:12 3.3 °F -0.9 °F 1015.5 in WSW 16.1 mph 24.1 mph 74 % 0.0 in
19:17 3.4 °F -0.8 °F 1015.5 in WNW 11.3 mph 25.7 mph 74 % 0.0 in
19:22 3.4 °F -0.6 °F 1015.5 in West 16.1 mph 33.8 mph 75 % 0.0 in
19:27 3.4 °F -0.6 °F 1015.5 in West 14.5 mph 33.8 mph 75 % 0.0 in
19:32 3.3 °F -0.5 °F 1015.5 in West 19.3 mph 33.8 mph 76 % 0.0 in
19:37 3.3 °F -0.5 °F 1015.5 in West 16.1 mph 33.8 mph 76 % 0.0 in
19:42 3.3 °F -0.5 °F 1015.5 in WNW 12.9 mph 33.8 mph 76 % 0.0 in
19:47 3.3 °F -0.5 °F 1015.5 in West 17.7 mph 29.0 mph 76 % 0.0 in
19:52 3.3 °F -0.5 °F 1015.5 in WNW 27.4 mph 29.0 mph 76 % 0.0 in
19:57 3.3 °F -0.3 °F 1015.5 in WSW 16.1 mph 35.4 mph 77 % 0.0 in
20:02 3.2 °F -0.3 °F 1015.5 in West 20.9 mph 35.4 mph 78 % 0.0 in
20:12 3.0 °F 0.1 °F 1015.8 in West 19.3 mph 32.2 mph 81 % 0.0 in
20:17 2.9 °F 0.0 °F 1015.8 in West 16.1 mph 30.6 mph 81 % 0.0 in
20:22 2.9 °F 0.0 °F 1015.8 in WSW 17.7 mph 29.0 mph 81 % 0.0 in
20:27 2.9 °F 0.0 °F 1015.8 in WSW 19.3 mph 29.0 mph 81 % 0.0 in
20:32 2.9 °F 0.1 °F 1015.8 in West 11.3 mph 30.6 mph 82 % 0.0 in
20:37 2.8 °F 0.0 °F 1015.8 in WNW 11.3 mph 30.6 mph 82 % 0.0 in
20:42 2.8 °F 0.2 °F 1015.8 in NNW 12.9 mph 30.6 mph 83 % 0.0 in
20:47 2.7 °F 0.1 °F 1015.8 in West 14.5 mph 30.6 mph 83 % 0.0 in
20:52 2.7 °F 0.1 °F 1015.8 in West 9.7 mph 30.6 mph 83 % 0.0 in
20:57 2.7 °F 0.1 °F 1015.8 in West 14.5 mph 20.9 mph 83 % 0.0 in
21:02 2.8 °F 0.2 °F 1015.8 in West 9.7 mph 20.9 mph 83 % 0.0 in
21:12 2.8 °F 0.2 °F 1015.8 in WNW 6.4 mph 20.9 mph 83 % 0.0 in
21:17 2.9 °F 0.1 °F 1016.1 in WNW 14.5 mph 24.1 mph 82 % 0.0 in
21:22 3.0 °F 0.1 °F 1016.1 in WNW 17.7 mph 24.1 mph 81 % 0.0 in
21:32 3.1 °F 0.2 °F 1016.1 in WNW 6.4 mph 24.1 mph 81 % 0.0 in
21:37 3.1 °F 0.2 °F 1016.1 in West 4.8 mph 20.9 mph 81 % 0.0 in
21:42 3.2 °F 0.1 °F 1016.1 in WNW 12.9 mph 17.7 mph 80 % 0.0 in
21:47 3.3 °F 0.0 °F 1016.1 in WNW 11.3 mph 17.7 mph 79 % 0.0 in
21:52 3.3 °F 0.2 °F 1016.1 in WNW 11.3 mph 19.3 mph 80 % 0.0 in
21:57 3.3 °F 0.2 °F 1016.1 in West 8.0 mph 19.3 mph 80 % 0.0 in
22:02 3.3 °F 0.0 °F 1016.1 in West 9.7 mph 19.3 mph 79 % 0.0 in
22:12 3.3 °F 0.0 °F 1016.5 in WSW 6.4 mph 16.1 mph 79 % 0.0 in
22:17 3.3 °F 0.2 °F 1016.5 in WNW 11.3 mph 17.7 mph 80 % 0.0 in
22:22 3.3 °F 0.0 °F 1016.5 in WSW 6.4 mph 17.7 mph 79 % 0.0 in
22:32 3.3 °F 0.0 °F 1016.5 in West 4.8 mph 17.7 mph 79 % 0.0 in
22:37 3.3 °F 0.2 °F 1016.5 in SW 12.9 mph 17.7 mph 80 % 0.0 in
22:42 3.3 °F 0.2 °F 1016.5 in WSW 4.8 mph 17.7 mph 80 % 0.0 in
22:47 3.2 °F 0.1 °F 1016.8 in West 4.8 mph 16.1 mph 80 % 0.0 in
22:52 3.2 °F 0.1 °F 1016.8 in WNW 6.4 mph 16.1 mph 80 % 0.0 in
22:57 3.1 °F 0.2 °F 1016.8 in North 1.6 mph 16.1 mph 81 % 0.0 in
23:02 3.1 °F 0.0 °F 1017.2 in West 4.8 mph 11.3 mph 80 % 0.0 in
23:12 3.2 °F 0.1 °F 1017.2 in WSW 3.2 mph 9.7 mph 80 % 0.0 in
23:17 3.2 °F 0.3 °F 1017.2 in West 1.6 mph 12.9 mph 81 % 0.0 in
23:22 3.2 °F 0.1 °F 1017.2 in West 3.2 mph 12.9 mph 80 % 0.0 in
23:27 3.2 °F 0.1 °F 1017.2 in WSW 8.0 mph 12.9 mph 80 % 0.0 in
23:32 3.2 °F 0.1 °F 1017.2 in West 11.3 mph 16.1 mph 80 % 0.0 in
23:37 3.2 °F 0.1 °F 1017.2 in West 9.7 mph 16.1 mph 80 % 0.0 in
23:42 3.3 °F 0.2 °F 1017.2 in WNW 3.2 mph 24.1 mph 80 % 0.0 in
23:47 3.3 °F 0.2 °F 1017.2 in West 12.9 mph 24.1 mph 80 % 0.0 in
23:52 3.3 °F 0.2 °F 1017.5 in WNW 8.0 mph 24.1 mph 80 % 0.0 in
23:57 3.2 °F 0.1 °F 1017.5 in West 4.8 mph 24.1 mph 80 % 0.0 in
Meteo18
Compliments of Weather Underground - 4 mb

Script developed by  Jim McMurry - jmcmurry@mwt.net Adapted for the template by  Wim van der Kuil - Leuven-Template.eu

You find our weather info also at:

European Weather Network

Weather Underground

Equipment we use:

Weather-station
Davis Vue

Weather-program
Meteobridge

Weather-server
Raspberry PI 2 B+

Provider
1 and 1

Davis Vue

Meteobridge

Raspberry PI 2 B+

1 and 1